Wind_Speed
7 7 8 8 7 8 6 5 5 6 7 9 11 11 12 13 13 13 13 14 14 15 16 16 16 16 16 15 14 14 14 15 15 14 13 12 11 10 10 10 10 12 13 12 11 12 13 14 13 13 14 15 15 14 13 12 13 15 15 15 15 15 15 15 16 16 16 16 15 15 14 13 13 13 12 12 11 11 12 11 11 11 10 9 9
8 8 9 8 8 7 6 6 6 7 8 10 12 13 14 14 14 14 14 15 16 17 18 18 17 16 16 16 15 15 14 13 13 13 12 12 12 12 12 12 12 12 13 12 11 13 14 13 13 13 14 16 16 16 15 14 13 14 15 15 15 16 15 15 16 17 17 17 16 16 16 15 14 13 13 12 12 11 12 12 12 12 11 11 10
10 10 9 8 8 7 7 7 7 8 9 11 12 14 14 15 14 14 15 16 16 17 18 17 16 16 16 16 16 15 13 12 12 11 10 10 12 13 13 13 13 13 14 13 12 13 14 15 14 14 15 16 17 16 16 15 15 15 15 15 16 16 16 16 16 16 17 17 18 18 17 16 16 15 14 13 12 12 12 12 12 12 12 11 11
12 11 10 8 8 7 7 7 7 8 9 11 12 13 14 14 14 14 14 15 15 15 16 16 17 17 16 15 14 14 13 12 11 11 10 9 9 12 14 14 14 14 15 15 14 13 14 15 15 16 16 17 18 16 15 15 16 17 16 16 16 16 17 17 16 16 16 17 18 18 18 18 17 16 16 15 14 13 12 12 12 12 12 12 11
12 11 11 10 9 8 7 6 7 8 9 10 11 12 13 14 14 14 13 13 13 14 15 16 17 17 16 15 14 13 13 12 11 11 11 10 10 11 12 13 14 15 16 16 16 15 15 16 16 17 17 17 18 18 17 16 16 18 19 19 18 17 17 17 17 17 16 17 17 17 18 18 18 18 17 16 15 14 14 13 13 13 13 13 12
13 12 12 11 10 9 7 7 8 8 9 10 10 12 13 13 13 12 13 13 13 14 16 17 17 18 17 16 14 13 12 11 10 9 9 10 11 12 11 12 12 13 15 16 16 16 16 17 18 19 19 19 19 19 19 18 17 18 20 21 21 20 18 18 18 18 18 17 17 17 18 18 18 18 18 17 16 16 15 15 15 15 15 14 14
14 13 12 12 11 10 8 9 9 9 9 10 11 12 12 11 11 11 12 13 14 15 16 17 16 16 15 14 12 12 11 10 9 8 7 7 8 9 9 10 11 12 14 15 14 14 16 17 18 20 21 21 22 21 20 20 19 18 19 22 24 23 21 19 19 19 20 19 19 18 18 18 18 18 18 18 17 17 17 16 16 16 16 16 16
15 14 13 13 12 11 11 10 10 9 10 11 12 12 11 10 11 11 11 12 13 14 14 15 15 13 12 12 11 10 9 8 8 7 6 6 5 5 6 7 9 11 13 14 13 13 13 15 16 18 21 22 23 22 21 21 20 20 20 21 23 24 23 22 21 20 20 20 20 20 20 20 19 18 19 19 19 19 18 18 18 18 17 17 17
16 15 14 14 14 14 13 12 10 10 10 11 12 12 11 11 11 11 12 12 12 12 12 13 13 11 10 11 10 8 7 7 7 7 6 5 4 4 5 6 7 8 10 13 14 13 13 14 15 17 19 21 22 22 21 22 22 23 23 22 22 22 24 24 23 21 21 20 20 20 20 21 21 20 20 19 19 20 20 20 19 19 19 18 18
16 16 15 15 16 15 13 12 10 9 9 10 11 12 12 12 12 12 13 13 12 11 10 11 11 10 9 9 8 6 5 5 5 5 4 2 2 4 5 6 6 6 6 8 11 12 13 14 16 17 18 19 20 20 21 21 23 25 24 24 24 22 23 24 24 23 23 22 21 21 20 21 21 21 21 21 21 20 21 21 21 20 20 19 19
15 16 16 16 16 14 13 11 9 8 9 10 11 12 13 14 13 12 11 12 12 10 9 10 10 9 8 7 6 4 3 2 2 3 3 2 3 5 6 7 7 6 5 4 6 7 9 12 14 16 17 18 18 18 19 20 22 24 24 25 26 25 25 25 24 24 24 24 23 23 22 21 21 22 22 23 23 22 22 22 22 21 21 20 20
14 16 16 15 14 12 11 9 8 10 11 11 11 12 14 14 13 12 11 11 11 10 9 9 10 8 6 5 4 2 1 3 2 4 4 4 4 6 7 8 8 7 6 5 4 5 6 8 10 13 15 16 16 17 19 20 22 23 24 24 26 28 29 28 26 26 25 24 24 25 25 24 23 22 22 23 24 24 24 24 23 23 22 22 21
15 15 15 13 11 9 8 7 9 12 13 12 11 11 12 12 12 11 10 10 9 9 9 10 10 8 5 5 3 0 3 5 2 5 4 3 4 7 8 9 9 8 7 6 6 7 7 7 8 9 11 13 14 14 16 18 21 23 24 25 26 28 30 30 28 28 27 26 26 26 26 27 26 25 23 23 24 25 26 26 25 24 24 23 23
12 12 11 10 9 8 7 9 10 11 11 11 10 10 10 10 10 9 9 9 8 7 8 9 8 7 8 7 4 3 5 4 3 4 2 3 5 7 8 8 9 9 8 8 8 8 8 7 8 8 9 9 10 11 11 14 17 19 20 22 25 26 28 30 30 29 28 29 28 27 26 27 28 28 27 25 24 24 25 26 26 26 26 25 25
9 9 9 10 9 9 9 10 11 11 10 8 8 9 9 8 8 9 9 9 7 5 6 7 6 6 8 7 5 3 4 4 3 2 1 3 4 5 5 6 7 7 8 8 8 9 9 9 9 9 9 9 9 9 9 10 12 14 14 15 18 22 25 28 29 29 30 31 31 30 28 28 28 30 30 29 28 26 25 24 26 27 27 27 26
9 9 9 10 9 9 11 11 11 10 8 7 7 7 7 7 7 8 8 8 6 4 5 5 5 6 6 6 5 4 2 2 4 3 3 4 3 3 4 5 5 5 7 7 8 9 9 10 10 10 11 11 11 11 11 11 12 12 13 12 14 17 19 22 26 28 30 32 32 31 30 29 29 29 29 30 30 30 29 27 26 26 27 27 27
9 9 9 10 10 11 12 11 11 10 7 6 7 7 7 8 7 8 8 7 7 6 6 6 5 6 6 5 3 2 3 5 4 3 2 3 2 4 4 5 5 5 5 6 7 8 9 9 10 10 11 12 13 13 14 14 13 13 14 14 14 15 15 17 20 24 27 30 32 32 32 31 30 30 30 30 30 31 31 31 29 27 27 27 28
11 11 11 12 12 12 12 11 11 8 6 6 7 8 8 8 8 8 8 8 8 7 7 6 6 7 6 4 3 2 3 5 3 1 1 1 3 4 4 5 5 5 5 6 7 8 9 9 9 10 10 11 13 14 15 16 16 16 16 15 15 15 15 16 17 20 23 26 29 31 32 32 32 32 31 31 31 30 31 32 32 30 29 28 28
12 13 12 12 12 12 12 11 9 8 7 8 8 8 8 7 7 8 8 8 8 8 7 5 5 6 5 4 3 3 3 3 4 4 3 2 3 3 4 6 5 5 6 7 8 9 10 11 11 11 10 10 11 13 15 16 17 18 18 18 18 18 18 18 18 19 21 23 26 28 30 32 33 33 33 32 32 32 32 33 34 33 32 30 29
13 13 13 13 13 13 12 10 9 8 7 7 7 7 6 6 6 6 7 8 7 7 6 5 4 4 4 3 2 2 3 3 4 4 5 5 4 3 3 4 5 6 8 9 11 11 11 11 11 12 11 10 10 11 13 15 16 17 19 19 20 21 21 22 21 21 21 22 24 26 28 30 31 31 32 33 33 32 33 33 34 34 33 32 31
13 13 13 14 13 13 11 10 8 7 7 6 6 6 6 6 5 5 6 6 6 5 5 3 2 3 3 3 3 3 3 4 4 4 5 6 6 6 7 6 5 7 9 10 11 11 11 11 11 11 11 10 10 9 10 11 13 15 17 19 19 21 22 24 24 23 23 23 24 25 26 28 30 30 31 32 32 32 32 33 34 35 35 34 33
14 14 14 14 13 12 11 9 8 8 7 6 6 6 6 6 5 5 5 5 4 4 4 3 3 4 3 3 3 4 5 5 5 5 5 6 8 10 11 11 11 11 11 12 12 11 11 11 11 10 10 9 9 9 9 9 11 12 13 16 17 19 21 23 24 25 25 25 26 26 26 27 28 29 30 31 32 32 32 32 33 35 36 36 36
14 14 14 12 11 11 10 9 8 8 7 6 6 6 6 6 6 6 5 4 3 3 4 4 5 5 4 4 4 5 6 6 6 7 8 8 9 11 12 14 15 15 14 14 13 12 12 11 10 10 10 9 9 9 9 9 11 12 12 13 14 17 20 22 23 25 26 27 28 28 28 28 27 28 29 31 32 33 33 33 33 35 36 36 36
15 15 13 12 11 11 10 9 9 8 8 7 7 7 6 6 6 6 5 3 2 3 3 4 5 6 5 5 5 6 7 7 7 8 9 10 11 12 13 14 16 16 17 16 14 14 13 12 10 10 10 10 10 9 10 10 11 12 13 13 13 14 17 20 23 25 26 28 28 29 29 29 29 29 29 30 31 32 34 34 34 34 36 36 36
16 15 13 12 11 11 10 9 9 8 8 7 8 7 7 7 6 5 4 3 3 3 3 4 5 6 7 7 7 8 8 9 9 9 10 11 12 13 13 14 15 17 19 18 17 15 14 13 12 11 11 11 11 11 10 12 13 13 14 14 14 15 16 17 20 23 27 29 30 30 30 30 30 30 31 31 32 33 34 35 35 35 36 36 37
17 15 14 11 10 10 9 8 8 8 8 8 9 8 8 8 7 6 5 4 4 4 4 4 5 6 8 8 9 10 11 11 11 11 12 12 13 14 14 15 16 17 19 20 20 19 17 15 12 11 12 12 12 12 11 12 14 16 16 16 16 16 17 17 18 20 23 28 31 32 33 33 33 33 33 33 34 35 35 36 36 37 37 37 38
16 15 13 11 11 10 9 9 9 9 9 10 10 10 10 9 9 9 8 7 7 7 7 7 7 8 8 10 11 12 13 13 14 14 14 14 15 15 15 17 18 19 19 21 22 22 21 18 13 10 11 13 15 14 14 14 16 18 18 19 18 18 18 19 19 19 20 23 27 32 34 36 36 37 36 36 36 37 37 37 37 38 39 39 39
16 15 14 13 12 11 10 10 10 11 11 11 11 11 11 11 12 12 11 10 10 10 10 11 11 11 11 12 13 14 14 15 16 16 16 16 16 16 16 17 19 20 21 22 24 24 23 22 18 13 12 15 18 18 18 17 18 19 20 21 21 21 21 22 22 22 22 22 23 27 31 35 38 39 40 40 39 39 39 39 39 39 40 41 41
17 16 15 15 14 13 12 11 11 12 13 12 11 12 13 13 13 13 14 13 13 13 13 13 13 13 13 13 14 14 15 16 17 17 17 18 17 17 17 18 19 21 22 24 27 26 24 22 21 18 16 18 21 21 21 20 20 20 21 22 23 24 25 25 25 25 25 24 24 25 27 31 35 39 41 42 42 42 42 41 41 41 41 42 42
19 18 17 17 15 15 14 13 13 13 12 11 10 11 12 13 13 14 14 15 15 15 15 14 13 13 13 14 14 14 15 16 17 19 20 20 18 18 18 19 20 22 23 26 30 30 27 24 22 21 21 23 25 25 23 22 22 22 23 24 25 27 29 29 29 28 28 27 27 27 27 29 32 36 40 42 44 44 44 44 43 43 42 42 43
21 20 19 17 17 17 16 14 14 12 11 10 10 11 12 12 12 12 13 14 15 15 14 14 13 14 14 14 14 15 16 17 17 20 22 20 18 17 18 19 21 23 23 26 30 32 30 28 26 24 24 26 27 27 26 24 23 23 24 26 27 29 31 32 32 31 31 30 29 29 29 29 30 32 36 40 43 44 45 46 45 45 44 43 43
21 20 19 18 17 18 17 15 13 11 10 11 12 12 12 12 11 11 11 12 13 13 13 13 14 14 15 15 16 16 17 17 18 19 20 19 17 17 18 19 20 22 23 25 29 33 33 31 29 26 25 26 27 26 27 26 24 24 25 26 29 31 33 34 35 35 34 34 33 32 31 31 31 32 34 37 41 44 45 45 46 47 46 45 44
21 20 19 18 18 18 17 15 12 11 11 12 12 12 12 12 11 11 10 10 12 12 13 14 14 14 15 16 16 16 16 17 17 17 18 17 18 18 18 19 19 20 22 24 28 32 33 31 31 29 27 27 27 25 27 28 26 26 26 27 30 33 35 37 38 38 36 36 35 35 34 32 32 32 33 35 38 42 44 45 46 47 48 47 46
20 19 19 18 19 18 16 14 12 12 12 12 12 13 12 12 11 10 10 11 12 14 14 14 14 14 15 16 15 14 15 16 16 17 18 18 19 20 19 19 20 20 21 24 27 32 34 33 32 31 28 27 27 26 26 29 28 27 28 29 31 34 37 39 40 39 38 37 37 36 36 34 32 33 34 35 37 40 43 45 46 46 48 49 48
20 19 19 19 19 18 16 14 13 13 13 13 13 13 12 11 10 9 10 12 14 14 14 14 13 13 13 14 13 13 14 16 16 16 17 18 19 20 20 20 20 20 21 23 26 30 34 34 32 32 29 27 28 28 28 29 30 29 29 30 32 35 38 39 40 40 40 40 40 38 37 36 34 33 34 35 37 39 41 44 46 46 47 48 49
21 20 20 20 20 18 16 15 14 13 13 13 13 13 12 10 10 10 10 12 13 13 13 13 12 11 12 13 13 14 15 17 17 17 16 17 18 19 20 19 20 21 21 23 25 26 30 31 31 31 30 29 30 30 30 31 30 30 30 32 34 36 38 39 40 42 43 43 44 42 39 37 35 33 33 35 37 39 40 43 45 46 47 47 49
22 21 22 22 20 19 17 16 15 14 13 13 13 12 11 10 10 10 10 11 12 13 13 12 11 10 12 14 15 16 17 18 19 19 19 18 18 19 20 20 21 23 23 24 25 25 26 29 31 31 32 32 32 32 31 31 32 32 32 32 34 37 38 39 42 44 45 46 47 46 43 40 36 34 33 34 36 38 40 42 44 46 46 46 47
24 23 24 23 21 20 18 17 15 14 14 13 13 12 12 11 11 10 10 12 13 14 13 12 11 12 13 15 17 18 19 19 20 20 21 21 21 21 22 22 23 24 25 26 26 26 26 28 30 32 33 33 34 34 32 31 33 35 35 35 36 37 39 42 44 46 47 49 50 49 47 44 40 35 34 34 34 37 39 41 43 45 46 46 46
25 24 24 23 21 20 18 17 15 14 14 14 14 14 13 12 11 11 11 13 14 15 14 13 13 14 16 17 19 19 20 21 21 21 22 23 23 24 25 24 24 25 27 27 26 27 27 28 29 31 33 34 35 36 33 32 34 35 35 37 40 40 41 44 47 49 50 51 53 52 50 48 46 41 36 35 34 35 38 40 43 44 46 46 46
26 25 25 23 21 20 18 17 15 14 15 15 15 15 14 13 11 11 12 14 16 16 16 15 16 17 18 19 20 21 21 21 22 23 24 24 25 26 27 25 24 25 26 27 28 28 28 28 29 30 32 35 36 36 35 34 35 35 34 37 43 44 45 47 49 51 52 53 55 55 53 50 49 47 42 37 34 33 34 38 41 43 44 45 45
26 26 25 23 22 21 19 17 16 16 16 16 15 15 14 13 11 11 12 14 16 17 17 18 18 19 20 21 22 22 23 23 23 25 25 26 26 27 27 26 25 25 25 27 28 28 28 29 29 30 32 35 36 36 37 36 36 37 36 38 43 46 48 51 52 51 52 55 56 57 56 52 50 49 46 42 37 32 32 34 38 41 43 44 45
27 27 25 24 23 22 20 18 17 17 17 16 14 14 14 12 12 12 13 15 16 18 19 19 20 21 22 24 25 25 25 25 24 24 25 25 25 26 26 25 25 25 25 26 27 28 28 29 29 30 32 35 37 37 38 38 37 37 38 40 44 48 50 54 56 54 52 54 56 59 59 55 50 48 46 45 42 36 33 33 34 38 41 42 43
27 27 26 26 25 23 21 20 19 20 19 16 15 14 14 13 13 14 15 17 18 20 20 20 21 22 23 25 26 27 27 26 24 22 23 24 24 24 24 25 25 26 26 27 27 26 26 28 29 30 33 36 37 37 38 38 38 38 39 41 44 48 50 53 57 59 54 52 55 61 62 57 51 47 46 46 45 40 35 33 33 36 39 40 41
27 28 28 28 26 23 22 21 21 21 20 17 16 15 15 15 15 17 18 20 21 22 23 23 23 24 25 27 27 28 27 26 24 22 22 22 23 23 24 25 26 27 28 29 29 27 26 28 30 31 33 35 36 37 37 37 37 38 41 42 45 48 50 52 56 60 57 52 54 61 63 58 50 46 45 46 46 42 36 32 34 36 38 38 39
27 28 29 28 26 23 22 22 22 21 20 18 17 16 15 15 16 18 21 22 24 25 25 26 25 26 27 28 29 28 27 25 24 22 22 22 23 24 25 26 27 28 29 30 29 27 27 27 29 31 32 33 34 35 36 36 35 37 41 45 45 47 51 53 55 58 56 52 53 57 61 59 49 45 47 46 45 43 37 31 32 37 39 38 37
28 29 30 29 26 24 23 22 21 20 19 18 17 16 15 16 18 21 23 25 26 27 28 28 26 26 27 28 29 29 26 25 23 22 22 23 24 24 25 26 28 28 29 30 29 28 28 28 30 32 33 33 33 34 35 36 36 38 43 46 46 48 52 53 52 54 54 52 50 51 57 58 51 48 50 47 43 42 37 31 30 35 39 37 36
27 29 30 28 25 23 23 22 21 20 19 17 17 16 17 19 21 23 25 26 26 28 29 27 24 24 26 28 29 29 27 25 22 22 23 24 24 25 26 27 28 29 29 30 29 29 29 30 32 33 33 35 35 34 35 37 38 40 43 44 44 45 47 48 49 53 55 53 48 46 52 56 52 49 51 48 43 42 38 32 30 34 38 37 35
28 29 30 29 26 23 22 22 22 21 20 18 18 18 19 21 22 23 24 25 25 25 26 23 22 23 26 27 28 28 26 24 23 23 25 25 25 26 27 28 28 28 29 29 29 29 31 33 33 33 33 34 34 33 33 34 35 36 38 39 40 40 42 45 49 53 55 55 51 46 50 54 52 50 51 48 43 40 38 33 29 33 37 36 34
27 28 29 28 26 24 22 23 24 23 22 20 20 21 22 22 23 23 24 24 23 22 21 20 21 24 26 27 28 27 25 24 24 25 25 24 25 26 27 27 27 28 28 29 29 29 31 31 31 32 32 31 30 28 27 27 28 30 33 37 37 36 39 44 47 51 56 58 54 48 46 49 49 47 47 45 41 39 37 33 29 32 36 35 33
25 26 30 30 29 27 24 24 24 24 23 23 23 24 24 24 24 24 24 23 22 21 20 21 23 25 26 27 28 26 25 25 25 25 24 24 25 26 27 27 27 27 27 27 28 28 29 29 28 29 29 27 25 24 23 24 27 28 30 33 33 34 38 43 45 50 57 59 53 45 43 46 47 45 42 39 38 37 35 31 28 31 36 35 32
28 31 34 32 31 29 27 27 28 27 27 27 26 26 27 28 26 24 22 21 21 20 21 22 24 26 27 28 27 26 26 25 24 24 24 25 25 25 25 25 26 27 26 26 26 27 28 29 28 27 25 22 21 22 24 26 28 28 28 29 30 32 38 44 46 49 54 58 53 45 45 48 47 42 37 34 33 33 30 27 29 32 34 34 32
Wind_Direction
215 214 220 217 221 229 240 255 273 294 299 301 300 302 304 302 300 295 293 293 293 292 290 295 304 307 306 306 307 306 303 299 295 292 287 279 266 256 255 256 256 260 265 265 259 251 248 248 244 244 248 249 245 243 245 246 245 241 239 240 241 241 240 238 233 228 226 226 227 230 232 234 234 233 233 235 240 244 245 246 250 252 251 251 255
207 210 216 217 225 233 247 261 276 292 295 296 299 302 303 301 298 296 294 292 292 293 293 297 303 306 306 309 310 308 304 299 299 297 291 281 268 256 249 250 251 255 262 264 258 247 244 244 242 238 241 248 247 243 242 244 247 245 243 242 243 244 243 243 241 237 231 228 228 229 231 233 234 236 236 237 241 246 248 248 249 251 249 249 252
208 211 216 220 230 239 251 264 277 288 293 294 297 300 299 298 297 296 295 294 295 296 299 303 307 308 309 311 311 308 304 300 300 301 298 286 270 259 251 249 251 253 256 260 260 252 246 243 242 239 239 246 250 249 246 246 246 246 245 245 245 245 245 246 245 244 240 235 232 230 231 232 233 236 238 240 242 246 248 249 250 249 248 248 250
213 216 220 227 237 244 252 262 276 280 285 291 295 298 296 298 299 299 300 299 301 302 305 308 309 311 313 315 314 310 306 300 296 296 299 295 277 264 257 253 253 255 256 258 259 256 251 247 247 245 243 245 250 252 253 253 253 250 246 246 247 248 247 247 246 247 247 245 241 237 235 233 233 235 237 239 241 243 244 248 249 248 248 250 254
221 224 228 237 244 252 260 266 273 271 278 288 293 296 297 300 301 302 302 303 306 306 308 310 312 315 317 318 317 314 312 308 301 293 289 286 276 267 262 260 256 255 257 259 260 258 253 249 248 248 246 248 251 252 253 254 256 255 251 247 246 248 250 250 248 248 249 249 249 246 243 240 238 237 237 239 240 240 241 244 247 248 250 253 258
230 234 237 245 252 257 266 272 272 271 280 289 292 295 297 298 298 299 302 305 308 307 308 311 315 319 319 318 315 313 314 317 316 306 293 280 271 266 264 265 260 255 253 254 257 257 254 250 248 249 248 249 250 252 254 255 257 258 257 253 248 245 248 252 252 251 251 250 251 250 249 247 245 243 242 242 240 239 239 241 244 247 251 254 259
237 239 241 247 253 257 265 269 271 277 288 292 294 295 293 291 290 294 300 305 307 308 312 315 319 324 324 320 313 311 317 323 325 321 311 296 283 275 269 267 260 251 245 246 249 252 253 251 249 250 250 250 249 249 252 256 259 260 260 259 256 249 245 249 252 254 254 253 253 252 252 251 250 249 248 247 245 243 241 241 243 246 250 254 259
239 241 243 245 248 252 258 263 270 283 292 294 296 294 286 284 290 296 300 304 306 308 314 318 322 329 331 326 315 315 324 329 331 333 329 322 317 300 286 277 265 253 244 242 242 242 246 249 249 249 251 252 251 252 255 258 260 260 260 261 262 258 251 248 249 253 255 255 255 255 255 253 252 252 252 252 250 248 246 244 244 246 250 254 258
245 244 243 244 247 250 254 262 272 284 291 295 295 288 280 284 293 300 302 304 304 305 311 316 321 330 335 330 323 326 336 338 336 337 336 329 329 323 313 308 296 276 257 250 247 244 243 246 248 248 250 251 251 253 256 258 260 260 262 262 262 262 257 252 248 249 253 255 256 257 258 257 256 255 255 255 254 252 250 248 247 247 250 253 257
255 254 252 252 251 251 255 262 272 280 287 291 288 278 273 280 291 300 303 304 301 298 305 310 314 325 335 331 327 332 341 343 347 346 346 347 341 341 342 341 336 320 289 265 257 253 249 248 250 250 250 251 252 254 254 254 257 258 260 260 260 260 258 256 252 249 250 251 254 256 258 259 260 258 258 258 257 255 253 251 250 249 250 253 256
263 262 262 262 259 256 257 261 269 276 282 285 279 268 265 274 285 295 298 299 300 296 297 303 307 319 337 339 331 336 347 2 38 14 356 346 332 336 345 350 354 354 339 299 269 262 256 251 251 252 253 254 254 256 255 254 254 255 256 256 256 257 257 258 257 253 251 251 253 255 256 256 259 260 260 259 259 258 256 254 252 251 251 252 255
264 261 260 261 258 251 248 258 269 272 276 282 278 268 267 275 284 288 291 295 300 298 294 300 307 315 343 1 347 341 89 129 76 6 347 333 328 335 341 346 350 356 358 348 325 305 290 274 265 262 261 260 257 256 255 255 254 255 257 257 256 256 257 259 259 256 254 253 254 255 256 255 255 257 259 260 260 260 258 256 254 253 252 252 254
259 256 252 248 238 227 235 261 275 276 280 283 278 271 272 279 286 291 297 302 305 304 298 300 309 321 352 20 31 25 161 145 45 357 350 341 339 340 339 342 343 343 344 342 335 329 324 314 298 283 274 269 264 259 255 255 257 258 258 259 259 258 257 256 255 254 254 255 255 256 257 257 257 256 257 258 259 260 259 258 257 255 254 253 253
246 243 236 226 218 221 247 275 289 295 297 288 273 267 271 279 291 301 308 313 314 305 296 300 316 332 343 4 52 105 162 153 19 357 350 345 345 346 345 343 340 336 333 326 320 318 315 311 305 298 291 281 272 264 257 256 258 257 255 256 257 256 254 253 251 251 251 253 254 254 256 258 259 257 256 256 257 259 259 259 258 257 257 256 255
238 232 222 218 223 240 270 293 306 310 306 291 272 267 273 286 301 312 316 320 323 305 288 297 316 328 336 351 19 61 157 157 39 34 33 355 344 353 6 1 349 341 334 325 317 312 308 304 295 290 288 283 278 269 261 257 255 252 250 251 252 252 252 252 252 251 250 251 252 253 254 255 257 258 258 257 256 256 256 258 259 258 258 258 257
243 233 224 228 241 265 287 300 305 305 302 293 284 280 286 296 306 315 320 325 327 308 285 292 306 317 333 347 351 11 83 66 47 71 55 31 20 20 25 12 0 348 338 334 328 322 317 312 303 294 288 281 277 271 265 261 256 252 251 252 252 252 252 253 254 252 250 250 251 253 255 254 254 254 256 257 257 256 256 258 259 259 259 258 258
250 243 241 249 261 275 285 292 296 297 294 290 289 289 293 298 302 310 314 316 312 298 287 290 298 303 315 331 336 0 11 6 38 88 60 44 34 26 24 9 6 0 349 349 346 341 333 323 314 305 298 290 285 278 273 267 261 257 253 252 252 254 255 255 258 256 251 251 251 252 255 256 254 254 254 255 256 258 258 256 255 257 258 258 258
251 248 250 256 263 270 275 282 286 277 263 261 265 269 275 281 287 294 296 294 292 292 292 292 292 293 294 294 285 289 333 350 9 31 25 43 18 19 23 13 12 12 4 0 356 354 348 341 331 319 307 298 293 288 284 277 271 266 260 256 254 255 257 257 259 259 255 254 253 253 254 256 257 256 256 254 254 256 257 255 254 255 257 258 257
246 244 247 252 257 261 265 270 267 249 241 242 244 252 256 259 263 270 277 278 280 289 300 298 288 283 277 266 261 274 306 321 325 338 351 8 2 6 20 16 6 0 2 358 352 349 347 345 341 336 325 310 297 290 287 284 279 275 269 265 260 258 259 259 258 257 256 254 253 253 254 255 257 257 258 256 254 253 254 255 256 255 254 255 256
245 243 245 248 252 255 257 258 253 243 241 240 243 250 250 252 251 254 265 270 275 285 294 300 288 265 251 241 246 265 279 291 308 327 334 341 346 341 352 9 5 353 353 353 349 345 341 339 339 340 339 331 316 298 291 287 284 280 277 274 268 263 260 259 259 256 255 255 254 254 255 255 256 256 257 258 257 255 253 254 256 255 252 251 254
242 242 244 247 249 250 251 251 249 248 247 241 242 245 249 253 251 251 257 264 274 281 282 286 264 232 218 221 247 264 275 289 302 316 326 333 341 344 341 343 355 357 351 350 350 345 339 336 336 337 340 343 341 328 312 302 294 288 282 279 276 271 265 261 259 256 255 256 255 256 257 257 257 256 255 257 259 259 256 254 254 254 251 250 252
238 238 242 245 246 244 245 248 249 249 248 244 240 239 245 247 249 255 256 256 257 259 265 261 236 220 217 241 269 282 292 302 311 317 324 329 335 343 342 337 339 347 347 345 348 346 339 334 330 331 332 337 344 346 343 335 326 314 300 289 282 276 271 265 261 258 255 254 254 253 253 255 256 255 254 253 255 256 256 254 253 252 252 251 252
236 239 242 244 243 242 244 247 248 252 254 250 248 245 243 242 246 251 257 261 242 233 251 253 242 236 241 265 283 291 298 304 312 314 319 325 330 335 339 334 332 336 338 339 341 342 339 333 324 320 323 327 331 336 342 345 342 338 330 316 299 285 276 269 264 260 257 254 253 252 251 251 252 253 252 252 252 253 253 253 253 253 253 253 252
237 241 243 243 243 243 246 249 250 257 261 257 257 255 247 238 237 238 243 254 243 238 248 248 252 254 258 267 274 282 289 296 305 309 315 320 323 327 331 329 327 328 330 332 334 337 339 335 325 320 321 322 324 330 336 338 336 333 331 330 323 309 292 279 270 264 260 257 255 254 252 251 250 250 249 249 250 251 252 252 252 253 253 254 253
242 244 245 247 249 248 250 250 248 254 257 256 256 252 242 231 223 222 226 237 250 260 262 254 257 263 269 273 276 283 289 294 300 304 309 312 313 317 322 321 321 323 326 326 329 334 341 338 329 325 326 323 323 327 334 337 336 333 328 325 325 322 314 301 286 274 266 262 260 257 256 254 253 252 250 249 249 249 251 252 252 251 252 252 252
250 248 247 250 253 251 247 239 236 245 251 251 251 245 238 229 219 215 219 233 251 262 267 265 267 271 275 278 282 287 290 293 295 297 301 303 304 309 314 314 314 317 320 322 325 330 338 340 332 326 328 328 328 329 331 332 333 335 333 327 323 319 316 313 307 295 281 270 265 262 260 258 257 256 254 253 252 250 249 250 250 250 249 249 249
251 246 246 251 254 247 234 227 231 240 245 244 243 241 238 230 225 225 228 238 251 260 266 271 274 277 278 281 283 284 287 290 292 294 297 298 300 303 307 309 309 311 315 318 320 324 331 335 333 328 329 332 334 333 329 327 327 328 329 328 326 323 319 315 313 310 303 289 277 269 264 262 260 259 258 256 254 252 251 249 248 248 247 247 246
244 241 245 249 248 238 228 227 231 236 237 237 238 239 240 235 232 234 236 244 253 260 267 272 278 283 286 288 287 285 285 285 287 291 293 295 298 300 303 306 306 307 311 314 315 318 324 329 329 326 328 332 335 334 330 326 324 323 325 326 326 326 325 322 318 314 310 305 295 283 273 267 263 260 259 258 257 255 253 251 249 247 245 245 244
239 240 245 245 240 234 231 229 229 229 229 230 235 240 242 243 242 242 243 248 255 261 268 274 282 286 288 290 290 288 286 283 284 287 289 291 293 293 297 302 302 303 307 308 308 310 314 320 323 322 323 327 329 330 329 326 324 323 325 327 327 328 328 326 322 318 313 309 305 298 288 277 270 264 260 259 258 257 255 254 252 249 246 244 243
237 237 239 239 235 231 230 229 227 227 227 232 241 246 248 250 250 251 251 253 258 265 271 277 281 283 285 289 291 291 289 285 286 287 287 288 291 294 294 295 296 297 300 301 301 303 307 312 316 315 316 320 321 322 324 324 324 325 327 329 329 330 329 327 325 322 318 313 308 304 298 289 279 270 264 260 257 256 256 255 253 252 249 246 243
234 234 234 234 231 227 226 227 228 229 236 247 255 258 258 258 258 258 258 258 262 266 270 273 274 277 284 290 292 293 291 289 289 289 288 289 294 300 299 296 296 296 296 296 296 300 305 308 310 311 313 316 316 316 318 321 323 325 327 328 330 330 330 329 327 325 321 316 311 306 301 296 288 278 269 263 259 256 255 254 254 253 252 249 246
232 233 233 231 228 225 222 223 227 235 246 254 260 261 258 258 261 263 262 261 263 265 266 268 271 277 285 289 291 293 293 289 287 289 293 294 297 301 302 299 298 297 297 295 294 300 305 306 308 312 315 315 313 312 313 316 321 324 325 326 329 331 330 329 328 327 325 321 315 309 303 297 292 285 275 267 261 257 254 254 253 252 252 251 249
231 231 231 229 227 223 220 220 226 238 248 254 258 256 251 253 259 262 263 262 264 266 268 270 275 281 286 288 291 296 297 293 290 291 295 298 298 300 301 299 298 299 298 297 297 300 303 305 307 311 314 313 311 310 310 312 317 321 321 323 328 331 331 330 329 328 328 326 320 313 306 298 291 286 279 271 264 259 255 253 252 252 251 251 250
229 228 227 226 223 219 216 219 228 237 245 250 251 249 247 251 256 259 262 264 267 271 273 276 280 282 284 287 295 303 303 300 300 299 299 300 300 299 299 298 297 298 298 299 299 299 300 303 306 308 310 310 308 307 308 310 314 317 317 320 325 329 331 332 331 329 330 330 326 319 312 302 292 283 279 273 267 261 256 252 251 251 250 250 249
227 225 222 220 218 216 215 221 229 235 243 246 245 244 244 248 254 259 264 269 273 276 277 279 283 284 285 290 298 305 305 302 303 304 304 304 302 300 300 298 296 296 297 298 298 298 299 302 304 306 308 309 306 306 307 308 312 314 314 316 322 327 330 332 332 330 331 331 330 326 318 309 297 284 277 272 267 263 258 253 250 249 249 249 248
227 222 216 214 213 215 217 222 228 235 242 244 243 241 243 250 259 266 271 275 277 277 277 280 284 285 286 292 299 303 302 301 302 303 303 303 302 302 301 299 297 297 298 298 296 298 300 301 302 304 308 308 306 307 308 308 309 310 309 314 320 324 327 330 330 330 331 332 331 329 324 316 302 288 279 273 267 263 259 254 250 248 248 248 247
227 220 213 211 212 216 219 223 229 235 241 244 244 244 248 256 264 272 278 279 274 270 271 274 277 280 286 295 302 302 300 299 300 301 301 301 301 300 299 298 297 297 297 297 295 296 297 298 299 304 307 307 307 307 308 308 308 307 307 311 317 321 324 327 328 329 331 331 330 328 326 321 310 293 282 276 270 263 259 256 251 248 247 247 247
227 220 213 211 214 217 221 225 230 235 240 244 247 249 252 256 262 272 278 275 268 264 264 266 271 278 288 297 300 298 295 296 297 297 297 297 296 296 296 297 296 295 294 294 294 294 294 295 298 302 305 306 306 306 308 308 307 306 307 309 313 317 320 323 324 325 328 329 328 327 326 323 317 303 288 280 274 265 259 256 251 248 246 246 245
228 222 216 213 215 219 222 226 230 235 241 245 248 250 251 251 256 266 270 269 265 262 263 269 276 283 288 293 295 294 293 292 293 293 293 291 292 293 295 296 297 295 293 293 293 292 293 295 297 300 303 305 305 305 307 308 305 305 307 308 310 314 317 319 319 321 323 325 326 326 324 323 320 312 298 286 278 269 261 256 252 248 245 245 244
229 224 219 216 217 221 223 226 231 235 241 246 249 250 248 246 251 259 264 265 264 264 268 275 281 285 287 290 292 292 290 288 288 288 287 286 287 289 291 294 295 294 293 292 291 290 291 292 295 298 301 302 303 304 306 306 304 304 307 306 306 310 314 315 315 316 318 321 323 324 322 320 318 314 306 293 282 272 263 257 253 249 245 244 244
230 226 222 220 221 224 225 227 231 235 240 245 247 246 243 242 246 253 260 264 266 267 271 277 282 287 290 291 292 290 288 286 286 285 285 284 284 285 287 289 291 291 291 290 289 288 288 289 291 295 298 298 300 303 304 305 305 305 306 306 305 307 310 310 310 312 315 318 321 321 319 316 314 311 306 297 287 278 270 260 253 249 245 244 243
231 227 223 223 224 224 225 228 231 234 239 242 242 239 237 239 244 251 258 263 267 270 273 277 284 289 291 292 293 292 291 290 289 289 288 287 286 285 285 287 289 290 289 289 289 288 288 287 290 294 295 296 298 302 303 304 304 303 304 305 304 306 309 308 308 311 314 316 318 317 315 313 310 306 303 297 290 283 275 265 254 247 244 243 243
231 230 226 226 226 225 226 229 232 235 237 238 235 232 234 239 247 253 259 264 268 273 276 281 287 291 292 292 293 294 293 293 293 293 292 292 290 288 288 289 289 289 287 288 289 289 289 289 290 292 293 294 298 302 302 302 303 303 302 303 304 305 307 306 306 309 313 316 316 313 311 310 307 304 300 296 291 285 275 265 254 244 241 240 241
232 232 230 229 228 226 228 230 233 235 237 237 235 233 234 240 248 257 263 267 270 274 278 282 287 291 294 295 295 294 293 294 295 295 294 294 293 291 289 288 288 288 287 287 288 288 288 288 289 291 293 296 299 300 300 301 302 301 299 300 301 302 303 302 303 306 310 314 313 309 308 309 307 303 300 295 290 285 276 263 253 244 238 236 237
231 234 234 232 230 228 230 232 234 237 239 240 239 240 244 250 259 266 269 271 272 274 277 279 284 290 296 298 297 295 293 292 294 297 296 295 294 292 290 288 287 286 286 286 286 285 284 286 289 293 297 298 298 298 299 300 300 298 297 298 300 300 300 301 302 304 308 311 310 306 305 307 305 301 299 295 288 284 276 264 253 244 238 235 234
228 234 234 233 231 230 232 234 237 240 241 241 243 248 256 263 269 273 275 276 276 275 274 274 280 289 296 297 296 294 292 291 293 296 296 297 297 295 294 292 290 288 286 285 283 280 279 284 291 296 299 299 297 297 298 297 296 296 297 298 300 300 300 302 303 304 306 310 310 304 300 302 303 299 297 294 288 283 276 265 253 243 237 234 232
219 226 232 233 232 233 235 237 239 241 241 241 244 252 261 268 274 277 278 278 278 278 279 280 285 291 294 294 293 292 292 291 293 296 298 299 299 299 299 296 294 292 287 284 281 279 280 286 292 296 297 296 295 294 294 296 297 297 297 298 300 302 304 306 306 305 307 311 311 302 295 298 301 296 293 293 288 282 276 265 251 240 235 232 229
212 222 233 235 233 237 240 240 240 240 241 243 249 258 265 271 276 280 282 281 279 280 285 289 291 291 291 291 291 291 291 291 294 297 298 298 299 301 301 300 298 294 289 284 281 281 284 289 292 293 293 294 294 294 295 297 298 300 302 303 306 308 310 309 306 307 310 313 313 303 294 296 298 293 290 291 287 279 274 266 249 236 232 229 228
207 218 231 234 237 242 243 244 245 245 247 250 255 261 266 270 275 280 284 283 278 277 282 286 288 288 289 289 289 289 290 292 296 298 297 299 302 303 302 301 298 294 290 289 288 288 289 291 293 295 296 297 297 296 297 298 300 305 308 307 308 311 312 309 307 309 313 313 313 308 296 294 297 293 289 289 284 277 272 264 247 232 227 225 226
207 221 234 242 248 248 245 246 249 250 251 252 254 258 263 270 276 281 282 278 274 276 281 285 287 287 288 287 287 288 291 294 297 298 300 303 305 305 302 299 296 294 295 296 296 295 295 296 297 299 300 300 301 300 301 303 306 309 308 305 307 310 311 311 310 312 314 313 313 310 299 294 297 295 288 284 280 274 268 258 240 226 222 222 224
222 233 241 249 253 251 250 252 252 253 255 256 257 263 271 277 279 279 277 275 275 281 285 285 285 285 285 284 285 288 292 296 297 300 304 307 306 304 301 297 296 297 299 301 301 301 301 303 305 305 303 305 308 309 309 309 310 311 308 304 306 308 309 311 314 315 312 310 312 311 302 297 295 290 283 277 271 270 270 256 233 220 218 219 223
Height
1583 1583 1583 1583 1583 1583 1583 1583 1583 1583 1583 1582 1582 1581 1580 1580 1579 1579 1578 1578 1578 1577 1577 1576 1576 1575 1574 1574 1574 1573 1573 1572 1572 1572 1572 1573 1573 1573 1573 1573 1573 1573 1573 1574 1575 1576 1576 1577 1577 1578 1579 1580 1580 1581 1582 1583 1583 1583 1584 1584 1585 1585 1586 1586 1586 1586 1587 1588 1588 1589 1589 1589 1590 1590 1591 1592 1593 1593 1594 1595 1596 1596 1597 1598 1598
1582 1582 1582 1583 1582 1582 1582 1582 1582 1582 1582 1581 1581 1580 1580 1579 1578 1578 1577 1577 1577 1576 1575 1575 1575 1574 1573 1573 1572 1572 1572 1571 1571 1571 1571 1572 1572 1572 1572 1572 1572 1573 1573 1573 1574 1574 1574 1574 1575 1575 1576 1577 1578 1579 1580 1581 1583 1583 1583 1584 1584 1584 1585 1585 1586 1586 1586 1587 1587 1588 1588 1589 1589 1589 1590 1591 1592 1592 1593 1594 1595 1596 1596 1597 1598
1581 1581 1581 1582 1582 1581 1581 1581 1581 1581 1581 1580 1580 1579 1579 1578 1578 1577 1577 1576 1575 1575 1574 1574 1573 1573 1572 1571 1571 1570 1570 1570 1570 1570 1570 1570 1571 1571 1572 1572 1572 1572 1572 1572 1572 1572 1572 1573 1573 1573 1574 1575 1576 1578 1579 1580 1581 1582 1583 1583 1583 1584 1584 1585 1585 1585 1586 1586 1586 1587 1587 1588 1588 1588 1589 1590 1590 1591 1592 1593 1594 1595 1595 1596 1597
1580 1580 1580 1581 1581 1580 1580 1580 1580 1580 1579 1579 1579 1578 1578 1577 1577 1576 1576 1575 1575 1574 1573 1573 1572 1571 1571 1570 1570 1569 1569 1569 1569 1569 1569 1569 1569 1570 1570 1571 1571 1571 1571 1570 1570 1570 1571 1572 1572 1573 1573 1574 1575 1576 1577 1578 1579 1581 1582 1583 1583 1583 1583 1584 1584 1584 1585 1585 1586 1586 1586 1586 1587 1587 1588 1588 1589 1590 1591 1592 1593 1594 1594 1595 1596
1579 1579 1580 1580 1580 1579 1579 1579 1579 1578 1578 1578 1577 1577 1576 1576 1575 1575 1574 1574 1574 1573 1573 1572 1571 1570 1570 1569 1569 1568 1568 1568 1568 1568 1568 1568 1568 1568 1569 1569 1570 1570 1570 1569 1569 1569 1569 1570 1571 1572 1572 1573 1574 1575 1575 1576 1577 1579 1580 1581 1582 1582 1582 1583 1583 1583 1584 1584 1585 1585 1585 1585 1586 1586 1587 1587 1588 1589 1590 1591 1592 1592 1593 1594 1595
1578 1579 1579 1579 1579 1578 1578 1578 1577 1577 1577 1576 1576 1575 1575 1575 1574 1574 1573 1573 1573 1572 1571 1571 1570 1569 1569 1568 1567 1567 1566 1566 1566 1566 1566 1566 1566 1567 1567 1567 1568 1568 1568 1568 1568 1568 1568 1568 1569 1570 1571 1572 1572 1573 1573 1574 1575 1577 1578 1580 1581 1581 1581 1582 1582 1582 1582 1583 1583 1584 1584 1584 1585 1585 1585 1586 1587 1588 1588 1589 1590 1591 1592 1593 1594
1577 1577 1577 1577 1577 1577 1577 1576 1576 1575 1575 1575 1575 1574 1574 1574 1573 1573 1573 1572 1572 1571 1570 1570 1569 1568 1567 1567 1566 1566 1566 1565 1565 1565 1565 1565 1565 1565 1565 1565 1566 1566 1566 1566 1566 1567 1567 1567 1567 1568 1569 1569 1570 1570 1571 1572 1572 1574 1575 1577 1579 1580 1580 1580 1581 1581 1581 1581 1582 1582 1583 1583 1583 1584 1584 1585 1586 1586 1587 1588 1589 1589 1590 1591 1592
1575 1575 1576 1575 1575 1575 1575 1575 1574 1574 1574 1573 1573 1573 1573 1572 1572 1572 1572 1571 1571 1570 1569 1568 1567 1567 1566 1566 1566 1565 1565 1565 1564 1564 1564 1564 1563 1563 1563 1563 1563 1563 1564 1564 1564 1565 1565 1565 1565 1566 1566 1567 1568 1569 1569 1570 1571 1572 1572 1574 1577 1578 1578 1579 1579 1579 1580 1580 1580 1581 1581 1581 1582 1582 1583 1583 1584 1585 1586 1586 1587 1588 1589 1589 1590
1573 1574 1574 1574 1574 1574 1574 1573 1573 1573 1573 1572 1572 1572 1572 1571 1571 1571 1570 1570 1569 1569 1568 1567 1566 1565 1565 1565 1565 1565 1564 1564 1564 1563 1563 1563 1563 1562 1562 1562 1562 1562 1562 1563 1563 1563 1563 1563 1564 1564 1564 1565 1566 1566 1567 1568 1569 1570 1570 1571 1573 1575 1576 1577 1577 1577 1578 1578 1578 1579 1579 1580 1580 1581 1581 1582 1582 1583 1584 1585 1585 1586 1587 1588 1589
1572 1572 1572 1572 1573 1572 1572 1572 1572 1572 1571 1571 1571 1571 1570 1570 1570 1570 1569 1569 1568 1567 1567 1566 1565 1565 1565 1564 1564 1564 1564 1563 1563 1563 1563 1562 1562 1562 1561 1561 1561 1561 1561 1561 1562 1562 1562 1562 1562 1562 1563 1563 1564 1564 1565 1565 1566 1566 1567 1568 1569 1570 1572 1574 1574 1574 1575 1576 1576 1577 1577 1577 1578 1579 1579 1580 1580 1581 1582 1583 1583 1584 1585 1586 1587
1570 1571 1571 1571 1572 1571 1571 1571 1571 1571 1570 1570 1570 1570 1569 1569 1569 1569 1568 1568 1567 1566 1566 1565 1564 1564 1564 1564 1563 1564 1563 1563 1562 1562 1562 1562 1562 1561 1561 1560 1560 1560 1560 1560 1560 1560 1560 1560 1560 1560 1561 1561 1562 1562 1563 1563 1563 1563 1563 1564 1565 1567 1569 1570 1571 1572 1572 1573 1573 1574 1575 1575 1576 1576 1577 1578 1578 1579 1580 1581 1581 1582 1583 1584 1584
1569 1569 1569 1570 1570 1570 1571 1570 1570 1570 1570 1569 1569 1568 1569 1568 1568 1568 1568 1567 1566 1565 1565 1564 1563 1563 1563 1563 1563 1563 1563 1562 1562 1562 1562 1562 1562 1561 1560 1560 1560 1560 1559 1559 1559 1559 1558 1558 1558 1558 1558 1559 1559 1560 1560 1561 1560 1560 1560 1561 1562 1564 1567 1568 1569 1569 1570 1570 1571 1572 1572 1573 1573 1574 1575 1575 1576 1577 1578 1578 1579 1580 1580 1581 1582
1566 1567 1568 1568 1569 1569 1569 1569 1569 1569 1569 1568 1568 1567 1568 1568 1567 1567 1567 1566 1566 1565 1563 1563 1562 1562 1562 1562 1562 1562 1562 1562 1561 1561 1561 1561 1561 1561 1560 1559 1559 1559 1558 1558 1558 1557 1557 1557 1557 1556 1556 1556 1557 1558 1558 1558 1558 1558 1558 1559 1560 1562 1563 1564 1565 1566 1567 1568 1569 1569 1570 1570 1571 1571 1572 1573 1573 1574 1575 1576 1577 1577 1578 1579 1580
1565 1565 1566 1567 1567 1568 1568 1568 1568 1567 1567 1566 1566 1566 1567 1567 1567 1566 1566 1565 1565 1564 1562 1562 1562 1561 1561 1561 1562 1562 1562 1562 1561 1561 1560 1560 1560 1560 1560 1559 1558 1557 1557 1557 1557 1557 1556 1556 1556 1555 1555 1555 1555 1555 1556 1556 1556 1556 1556 1557 1557 1558 1559 1560 1561 1562 1563 1565 1566 1566 1567 1568 1568 1568 1569 1570 1570 1571 1572 1573 1574 1575 1576 1576 1577
1563 1564 1565 1565 1566 1566 1566 1566 1566 1565 1565 1565 1565 1566 1566 1566 1566 1565 1565 1564 1563 1563 1562 1561 1561 1561 1561 1561 1562 1562 1562 1562 1562 1561 1560 1560 1560 1559 1559 1558 1558 1557 1556 1556 1556 1556 1555 1555 1555 1554 1554 1554 1554 1554 1554 1555 1555 1554 1555 1555 1555 1556 1556 1557 1558 1559 1560 1561 1562 1563 1564 1564 1565 1566 1566 1567 1567 1568 1569 1570 1571 1572 1573 1574 1574
1562 1562 1563 1564 1564 1564 1564 1564 1564 1564 1563 1563 1564 1564 1565 1565 1564 1564 1564 1563 1562 1562 1561 1561 1561 1561 1561 1560 1561 1561 1561 1562 1561 1560 1560 1559 1559 1559 1558 1558 1557 1557 1556 1555 1555 1554 1554 1554 1554 1553 1553 1553 1553 1553 1553 1553 1553 1553 1553 1553 1553 1553 1553 1554 1554 1555 1556 1557 1558 1560 1560 1561 1562 1563 1563 1564 1564 1565 1566 1567 1568 1569 1570 1571 1571
1561 1561 1561 1562 1562 1562 1562 1562 1562 1562 1562 1562 1563 1563 1563 1563 1563 1563 1562 1561 1561 1561 1561 1560 1560 1560 1560 1560 1560 1560 1560 1560 1560 1560 1560 1559 1559 1558 1558 1558 1557 1556 1556 1555 1554 1554 1553 1553 1552 1552 1551 1551 1551 1551 1551 1551 1551 1551 1551 1551 1551 1550 1550 1551 1551 1552 1553 1554 1555 1556 1557 1557 1558 1559 1560 1560 1561 1562 1562 1563 1564 1565 1566 1567 1568
1559 1560 1560 1560 1561 1561 1561 1561 1561 1561 1561 1561 1562 1562 1562 1562 1562 1561 1560 1560 1560 1560 1560 1560 1559 1559 1559 1559 1559 1559 1559 1559 1559 1559 1559 1559 1558 1558 1557 1557 1556 1556 1555 1554 1554 1553 1553 1552 1551 1551 1550 1550 1549 1549 1549 1549 1549 1549 1549 1549 1548 1548 1547 1547 1548 1549 1549 1550 1551 1552 1553 1554 1554 1555 1556 1556 1558 1558 1559 1560 1561 1562 1562 1563 1565
1558 1559 1559 1559 1559 1559 1559 1560 1560 1560 1560 1560 1561 1561 1561 1561 1560 1560 1559 1559 1559 1559 1559 1559 1558 1558 1558 1558 1559 1559 1559 1558 1558 1558 1558 1558 1558 1558 1557 1556 1556 1555 1555 1554 1553 1552 1552 1551 1550 1549 1549 1548 1548 1547 1547 1546 1547 1546 1546 1546 1546 1545 1545 1545 1545 1546 1546 1547 1547 1548 1549 1550 1551 1551 1551 1552 1553 1555 1556 1557 1557 1558 1559 1560 1561
1557 1557 1557 1558 1558 1558 1558 1558 1558 1558 1559 1559 1559 1559 1559 1559 1559 1558 1558 1558 1557 1557 1557 1557 1557 1557 1557 1558 1558 1558 1558 1558 1558 1558 1557 1557 1557 1557 1556 1556 1556 1555 1554 1553 1552 1551 1551 1550 1549 1548 1547 1547 1546 1545 1545 1545 1544 1544 1543 1543 1543 1543 1543 1543 1543 1543 1543 1544 1544 1545 1545 1546 1547 1547 1548 1548 1549 1551 1552 1553 1554 1554 1555 1556 1557
1555 1556 1556 1557 1557 1557 1557 1557 1557 1557 1557 1557 1557 1557 1557 1557 1557 1557 1557 1556 1556 1556 1556 1556 1556 1557 1557 1557 1557 1557 1557 1557 1557 1557 1557 1557 1556 1556 1555 1555 1555 1554 1553 1552 1552 1550 1550 1549 1548 1547 1547 1546 1545 1544 1543 1543 1542 1542 1541 1541 1541 1541 1540 1540 1540 1540 1541 1541 1541 1542 1542 1543 1543 1543 1544 1545 1546 1547 1548 1549 1550 1551 1552 1553 1554
1554 1555 1555 1556 1556 1556 1556 1556 1556 1556 1556 1556 1556 1556 1555 1555 1555 1555 1555 1556 1556 1556 1555 1556 1556 1556 1556 1556 1557 1556 1556 1556 1556 1556 1556 1556 1555 1555 1554 1553 1552 1553 1552 1552 1551 1550 1549 1548 1547 1547 1546 1545 1544 1543 1542 1541 1540 1540 1540 1539 1539 1539 1538 1538 1538 1538 1538 1538 1538 1538 1539 1539 1539 1539 1540 1541 1542 1543 1544 1545 1546 1547 1548 1549 1550
1553 1554 1554 1555 1555 1555 1555 1555 1555 1555 1555 1555 1554 1554 1554 1554 1554 1554 1555 1555 1555 1555 1555 1555 1555 1555 1555 1556 1556 1555 1555 1555 1555 1555 1555 1555 1554 1554 1553 1552 1551 1551 1551 1550 1550 1549 1548 1547 1547 1546 1545 1544 1543 1542 1541 1540 1539 1539 1538 1537 1537 1536 1536 1536 1535 1535 1535 1535 1535 1535 1534 1534 1534 1535 1536 1537 1538 1538 1540 1541 1542 1543 1544 1545 1546
1552 1552 1553 1553 1553 1554 1554 1554 1554 1554 1554 1554 1554 1553 1553 1553 1553 1554 1554 1554 1554 1555 1555 1555 1555 1555 1555 1555 1555 1555 1554 1554 1554 1554 1553 1553 1553 1552 1552 1551 1550 1549 1549 1549 1548 1548 1547 1546 1545 1545 1544 1543 1542 1541 1540 1539 1538 1537 1537 1536 1535 1534 1534 1533 1533 1532 1532 1532 1532 1531 1531 1530 1530 1530 1531 1532 1532 1533 1535 1536 1538 1539 1540 1541 1542
1550 1551 1551 1551 1552 1552 1552 1553 1553 1553 1553 1553 1553 1553 1553 1553 1553 1553 1553 1553 1554 1554 1554 1554 1554 1554 1554 1554 1554 1554 1554 1553 1553 1552 1552 1552 1551 1551 1551 1550 1549 1548 1547 1547 1546 1546 1546 1545 1544 1543 1542 1541 1540 1540 1538 1537 1536 1535 1535 1534 1533 1532 1531 1530 1530 1529 1529 1528 1528 1528 1528 1527 1526 1526 1526 1527 1527 1528 1530 1531 1533 1534 1535 1536 1537
1548 1549 1550 1550 1550 1550 1551 1551 1551 1552 1552 1552 1552 1552 1552 1552 1552 1552 1552 1553 1553 1553 1553 1554 1554 1554 1554 1554 1553 1553 1553 1552 1552 1551 1551 1551 1550 1550 1549 1549 1548 1547 1546 1545 1544 1544 1544 1544 1543 1542 1541 1540 1539 1538 1537 1536 1535 1534 1533 1531 1531 1530 1529 1528 1527 1526 1526 1525 1524 1524 1523 1523 1523 1522 1522 1523 1523 1524 1525 1526 1528 1529 1530 1532 1533
1547 1548 1548 1548 1549 1549 1549 1549 1550 1550 1551 1551 1551 1552 1552 1551 1551 1551 1551 1551 1551 1552 1552 1552 1553 1553 1553 1553 1552 1552 1552 1551 1551 1550 1550 1550 1550 1549 1549 1548 1547 1545 1545 1544 1542 1542 1542 1541 1541 1540 1539 1538 1537 1536 1535 1534 1533 1532 1530 1529 1528 1527 1526 1525 1524 1523 1522 1521 1520 1519 1519 1518 1518 1518 1518 1519 1519 1520 1520 1521 1523 1524 1525 1527 1528
1546 1546 1547 1547 1547 1548 1548 1548 1548 1549 1549 1550 1550 1550 1551 1550 1550 1550 1550 1550 1550 1550 1551 1551 1552 1552 1552 1552 1551 1551 1551 1550 1550 1549 1549 1549 1548 1548 1548 1547 1546 1544 1542 1541 1540 1540 1540 1539 1538 1538 1537 1536 1535 1534 1533 1532 1531 1530 1528 1527 1525 1524 1523 1522 1521 1520 1518 1517 1516 1515 1514 1514 1514 1514 1514 1514 1515 1515 1516 1517 1518 1519 1520 1521 1523
1544 1545 1545 1545 1546 1546 1546 1547 1547 1547 1548 1548 1549 1549 1549 1549 1549 1549 1549 1549 1549 1549 1550 1550 1550 1551 1551 1550 1550 1550 1550 1549 1548 1548 1547 1547 1546 1546 1546 1545 1544 1543 1541 1539 1538 1537 1538 1537 1536 1535 1534 1534 1533 1532 1531 1529 1528 1527 1526 1524 1522 1521 1520 1519 1517 1516 1515 1513 1512 1511 1509 1509 1509 1509 1509 1509 1510 1511 1511 1512 1513 1514 1515 1516 1518
1542 1542 1543 1543 1544 1544 1545 1546 1546 1546 1547 1547 1547 1547 1548 1548 1548 1548 1548 1548 1548 1548 1548 1548 1549 1549 1549 1549 1549 1548 1548 1547 1546 1546 1545 1544 1544 1543 1543 1543 1542 1542 1540 1538 1535 1534 1535 1536 1535 1533 1532 1531 1530 1529 1528 1527 1525 1524 1523 1521 1520 1518 1516 1515 1514 1512 1511 1510 1508 1507 1505 1504 1504 1504 1504 1504 1504 1505 1506 1507 1508 1509 1510 1511 1512
1540 1540 1540 1541 1542 1543 1544 1544 1545 1545 1545 1545 1545 1546 1546 1546 1546 1546 1546 1546 1546 1546 1546 1546 1547 1547 1547 1547 1547 1546 1546 1545 1544 1543 1542 1542 1542 1541 1540 1540 1540 1539 1539 1537 1533 1530 1531 1532 1532 1532 1530 1529 1527 1525 1525 1524 1523 1521 1520 1518 1517 1515 1513 1512 1510 1509 1507 1506 1504 1503 1502 1500 1499 1498 1498 1498 1499 1499 1500 1501 1502 1503 1504 1506 1507
1537 1537 1538 1539 1540 1541 1542 1543 1544 1544 1544 1544 1544 1544 1544 1544 1545 1545 1545 1545 1544 1544 1544 1544 1544 1545 1545 1545 1545 1544 1544 1543 1542 1541 1540 1540 1539 1538 1537 1537 1537 1536 1536 1535 1531 1528 1528 1528 1528 1529 1528 1526 1524 1522 1521 1520 1519 1518 1516 1515 1513 1512 1510 1508 1506 1505 1503 1502 1500 1498 1497 1496 1494 1493 1493 1493 1493 1493 1494 1495 1496 1497 1498 1500 1501
1535 1536 1537 1538 1539 1540 1541 1542 1542 1542 1542 1543 1542 1542 1543 1543 1543 1543 1543 1543 1543 1543 1543 1543 1542 1543 1543 1543 1543 1542 1541 1540 1540 1539 1538 1537 1536 1535 1535 1534 1534 1534 1533 1532 1530 1526 1524 1525 1525 1525 1525 1524 1521 1520 1518 1516 1515 1514 1513 1511 1510 1508 1506 1504 1502 1501 1499 1498 1496 1494 1492 1491 1489 1488 1487 1487 1487 1487 1488 1489 1489 1491 1492 1494 1495
1533 1535 1536 1538 1539 1539 1540 1540 1541 1541 1541 1541 1541 1541 1541 1541 1541 1542 1542 1542 1542 1542 1542 1541 1541 1541 1540 1540 1540 1540 1539 1538 1537 1537 1536 1535 1534 1533 1532 1532 1531 1531 1531 1529 1528 1525 1522 1521 1521 1521 1521 1520 1518 1517 1515 1513 1511 1510 1509 1507 1506 1504 1502 1500 1498 1496 1495 1493 1491 1489 1487 1486 1484 1482 1481 1481 1481 1481 1481 1482 1483 1484 1485 1487 1489
1532 1534 1535 1536 1538 1538 1538 1538 1539 1540 1540 1540 1540 1540 1540 1540 1540 1540 1541 1541 1541 1541 1540 1540 1539 1539 1538 1538 1539 1538 1537 1536 1535 1535 1534 1533 1533 1531 1530 1529 1529 1528 1528 1527 1525 1523 1520 1518 1517 1517 1517 1517 1515 1513 1512 1510 1508 1506 1505 1503 1502 1500 1498 1497 1494 1492 1490 1488 1486 1484 1482 1480 1479 1477 1476 1475 1474 1474 1474 1475 1477 1478 1479 1480 1482
1530 1531 1533 1534 1535 1536 1536 1537 1538 1538 1539 1539 1539 1539 1539 1539 1539 1539 1540 1540 1540 1540 1539 1538 1538 1537 1537 1537 1537 1536 1536 1534 1534 1533 1533 1532 1531 1529 1528 1527 1526 1525 1525 1524 1523 1522 1519 1516 1514 1514 1513 1512 1511 1510 1508 1506 1504 1503 1501 1499 1498 1496 1494 1493 1490 1488 1485 1484 1481 1479 1477 1475 1473 1472 1470 1469 1468 1468 1468 1468 1470 1471 1472 1473 1475
1528 1529 1530 1532 1533 1534 1534 1535 1536 1537 1538 1538 1538 1537 1537 1538 1538 1538 1538 1538 1538 1538 1538 1537 1536 1536 1535 1535 1535 1535 1533 1532 1532 1531 1530 1529 1528 1527 1526 1525 1524 1523 1522 1522 1520 1519 1517 1514 1512 1511 1510 1508 1507 1506 1505 1503 1500 1499 1497 1496 1494 1492 1490 1488 1486 1483 1481 1478 1476 1474 1472 1470 1468 1466 1464 1463 1462 1461 1461 1461 1462 1464 1465 1467 1469
1526 1527 1528 1529 1530 1532 1533 1534 1535 1535 1536 1536 1536 1536 1536 1536 1536 1536 1536 1536 1537 1537 1536 1536 1535 1534 1534 1534 1533 1533 1531 1530 1529 1529 1528 1527 1526 1524 1523 1522 1522 1521 1520 1519 1518 1516 1515 1513 1510 1508 1507 1505 1504 1502 1502 1501 1497 1494 1492 1491 1489 1488 1486 1483 1480 1478 1476 1473 1471 1469 1466 1464 1462 1460 1458 1457 1456 1455 1454 1455 1455 1457 1459 1460 1462
1525 1526 1527 1527 1528 1529 1531 1532 1532 1533 1533 1533 1533 1533 1533 1533 1533 1534 1534 1534 1535 1535 1535 1534 1533 1533 1532 1532 1531 1530 1529 1528 1527 1526 1526 1525 1523 1522 1521 1520 1519 1518 1517 1516 1515 1514 1512 1510 1509 1507 1504 1503 1501 1499 1498 1497 1495 1492 1489 1486 1483 1482 1481 1478 1475 1472 1470 1468 1464 1462 1461 1458 1455 1453 1452 1450 1449 1448 1447 1448 1448 1449 1452 1454 1455
1523 1524 1525 1526 1527 1528 1528 1529 1530 1530 1530 1530 1531 1530 1531 1531 1531 1531 1532 1533 1533 1533 1533 1532 1531 1531 1530 1530 1529 1528 1527 1525 1524 1523 1523 1522 1520 1519 1518 1517 1517 1515 1514 1513 1512 1511 1509 1508 1506 1505 1502 1500 1498 1496 1495 1494 1491 1489 1488 1484 1479 1476 1475 1473 1470 1467 1464 1462 1458 1455 1453 1452 1449 1446 1445 1443 1442 1442 1441 1441 1441 1442 1445 1447 1449
1522 1522 1523 1524 1525 1526 1526 1526 1527 1527 1527 1528 1528 1528 1529 1529 1529 1529 1530 1531 1531 1531 1531 1530 1529 1529 1528 1528 1527 1526 1524 1523 1522 1521 1520 1519 1517 1516 1515 1515 1514 1513 1512 1510 1509 1508 1507 1505 1504 1502 1500 1498 1495 1493 1492 1490 1488 1485 1485 1482 1476 1472 1470 1466 1464 1463 1461 1456 1452 1448 1446 1445 1443 1439 1437 1436 1434 1435 1435 1434 1434 1436 1438 1440 1442
1520 1521 1522 1522 1523 1523 1523 1523 1524 1524 1524 1525 1525 1526 1526 1527 1527 1527 1528 1528 1529 1529 1528 1528 1527 1526 1526 1525 1524 1523 1522 1520 1519 1518 1517 1515 1514 1513 1512 1512 1511 1510 1509 1507 1506 1505 1504 1502 1501 1500 1498 1495 1493 1491 1488 1487 1485 1483 1481 1478 1473 1469 1466 1460 1455 1456 1457 1453 1447 1441 1438 1439 1437 1433 1430 1429 1427 1428 1428 1427 1428 1429 1431 1434 1436
1518 1519 1519 1520 1520 1520 1520 1521 1521 1521 1522 1523 1523 1524 1524 1524 1525 1525 1525 1526 1526 1526 1526 1525 1524 1524 1523 1523 1522 1521 1519 1518 1517 1515 1514 1512 1511 1510 1509 1509 1508 1507 1506 1504 1503 1502 1501 1499 1498 1497 1495 1492 1490 1489 1486 1483 1482 1480 1478 1475 1471 1467 1464 1458 1449 1446 1450 1451 1444 1435 1430 1431 1431 1427 1423 1422 1421 1420 1421 1420 1421 1423 1425 1427 1430
1515 1516 1517 1517 1517 1518 1518 1518 1518 1518 1519 1520 1521 1521 1521 1522 1522 1523 1523 1523 1523 1523 1522 1522 1521 1521 1520 1520 1519 1518 1517 1515 1514 1512 1511 1510 1509 1507 1507 1506 1505 1504 1503 1502 1500 1499 1498 1496 1495 1494 1492 1490 1487 1485 1483 1480 1478 1476 1474 1471 1469 1465 1461 1457 1449 1442 1443 1447 1442 1430 1422 1422 1424 1420 1415 1414 1413 1412 1413 1413 1415 1416 1418 1420 1423
1511 1513 1514 1514 1515 1515 1515 1515 1515 1516 1517 1518 1519 1519 1519 1520 1520 1520 1520 1520 1520 1519 1519 1518 1518 1517 1517 1517 1516 1515 1514 1513 1511 1509 1508 1507 1506 1504 1504 1503 1502 1502 1501 1499 1498 1496 1495 1493 1491 1490 1489 1487 1484 1482 1480 1478 1476 1473 1470 1467 1466 1463 1458 1453 1448 1441 1439 1441 1439 1428 1415 1413 1417 1414 1408 1406 1406 1405 1405 1406 1408 1410 1411 1414 1417
1507 1509 1511 1512 1513 1513 1512 1513 1513 1514 1515 1516 1516 1517 1517 1517 1518 1518 1517 1517 1516 1516 1515 1514 1515 1514 1514 1513 1512 1512 1511 1510 1508 1506 1505 1503 1502 1501 1501 1500 1499 1498 1497 1496 1495 1493 1492 1490 1488 1486 1485 1484 1481 1479 1477 1475 1473 1470 1467 1464 1461 1458 1454 1449 1444 1438 1435 1436 1435 1425 1411 1405 1410 1408 1401 1399 1400 1398 1398 1399 1401 1403 1405 1407 1410
1503 1505 1507 1509 1510 1510 1510 1511 1511 1512 1513 1514 1514 1514 1514 1515 1515 1514 1514 1513 1513 1512 1511 1511 1512 1511 1511 1510 1509 1508 1507 1506 1505 1503 1501 1500 1498 1497 1497 1496 1496 1495 1493 1492 1491 1490 1488 1487 1485 1483 1481 1480 1478 1476 1474 1472 1469 1466 1464 1461 1458 1454 1449 1444 1438 1433 1429 1429 1429 1423 1408 1400 1404 1401 1393 1392 1393 1391 1390 1392 1393 1396 1399 1401 1404
1499 1501 1503 1505 1507 1508 1508 1509 1509 1509 1510 1511 1512 1512 1512 1512 1512 1511 1510 1510 1509 1509 1508 1508 1509 1508 1508 1507 1506 1505 1504 1503 1502 1500 1498 1497 1495 1494 1493 1492 1492 1491 1489 1488 1488 1486 1485 1483 1482 1480 1478 1476 1474 1472 1471 1469 1466 1464 1460 1456 1453 1450 1445 1438 1433 1427 1422 1420 1421 1418 1406 1396 1396 1394 1387 1385 1386 1384 1383 1385 1386 1389 1392 1395 1399
1495 1497 1499 1502 1503 1505 1506 1506 1506 1507 1508 1509 1509 1509 1509 1509 1508 1508 1507 1507 1506 1506 1506 1506 1506 1505 1505 1504 1503 1502 1501 1500 1498 1497 1495 1493 1492 1490 1489 1489 1488 1487 1486 1485 1484 1483 1481 1480 1478 1476 1474 1472 1470 1469 1468 1466 1464 1461 1457 1452 1449 1446 1441 1435 1428 1421 1415 1412 1412 1410 1402 1393 1389 1386 1382 1380 1379 1378 1377 1378 1380 1383 1386 1390 1393
1493 1495 1497 1498 1500 1502 1503 1503 1504 1504 1505 1505 1506 1505 1505 1505 1504 1504 1504 1504 1503 1503 1503 1503 1503 1502 1502 1501 1500 1499 1498 1497 1495 1494 1492 1490 1489 1488 1486 1486 1485 1483 1482 1481 1480 1478 1477 1475 1474 1472 1470 1468 1466 1465 1464 1463 1461 1459 1455 1449 1446 1443 1438 1431 1425 1416 1407 1403 1404 1403 1395 1387 1383 1380 1377 1375 1373 1371 1371 1372 1374 1377 1381 1385 1388
1492 1493 1494 1495 1496 1497 1498 1500 1500 1501 1501 1502 1503 1503 1502 1502 1501 1501 1501 1501 1501 1501 1501 1500 1500 1499 1499 1498 1497 1496 1495 1494 1492 1490 1489 1487 1486 1485 1484 1483 1482 1481 1479 1478 1476 1474 1472 1470 1469 1468 1466 1464 1463 1461 1460 1458 1457 1455 1451 1447 1444 1440 1434 1428 1422 1415 1402 1392 1394 1397 1390 1380 1376 1374 1373 1372 1369 1366 1366 1367 1368 1372 1376 1380 1383